[[{"header":{"parameterUnit":"m.s-1","parameterCategory":1,"la1":30.2991,"la2":30.254,"lo1":-89.0895,"lo2":-89.0444,"dy":0.0017,"dx":0.0017,"nx":28,"ny":28,"refTime":"2024-12-11T03:00:00:Z","depth":0,"parameterNumber":2,"parameterNumberName":"U-component_of_WINDS"},"data":[0,0,0,0,0,0,0,0,0,0,0,0,0,0,0,0,0,0,0,0,0,0,0,0,0,0,0,0,0,0,0,0,0,0,0,0,0,0,0,0,0,0,0,0,0,0,0,0,0,0,0,0,0,0,0,0,0,0,3.0409,3.041,0,3.0477,3.0478,3.0479,3.0422,3.042,3.0417,3.0415,3.0483,3.0486,3.049,0,0,0,0,0,0,0,0,0,0,0,0,0,3.0231,3.0234,3.0409,3.041,3.0411,3.0477,3.0478,3.0479,3.0422,3.0419,3.0417,3.0414,3.0481,3.0486,3.0491,0,0,0,0,0,0,0,0,0,0,0,0,0,3.0304,3.0235,3.0409,3.0391,3.039,3.0477,3.0478,3.0479,3.0423,3.0419,3.0416,3.0413,3.048,3.0486,3.0491,3.0599,0,0,3.051,3.0512,0,0,0,0,0,0,0,0,3.03,3.0311,3.0393,3.0392,3.0391,3.0437,3.044,3.0519,3.0424,3.041,3.0415,3.0411,3.047,3.0477,3.0497,3.0602,3.0605,3.051,3.0514,3.0517,3.0518,0,0,0,0,0,0,0,3.0295,3.0308,3.0436,3.0394,3.0393,3.0379,3.0386,3.0454,3.0459,3.0411,3.0407,3.0416,3.0469,3.0492,3.0498,3.0606,3.051,3.0515,3.0519,3.0522,3.0805,3.0808,0,0,0,0,0,0,3.0292,3.0304,3.0434,3.0438,3.0336,3.0385,3.0392,3.0426,3.0458,3.046,3.0419,3.0413,3.0483,3.0492,3.0501,3.063,3.0516,3.0522,3.0526,3.0801,3.0806,3.081,0,0,0,0,0,0,3.0288,3.0304,3.0431,3.037,3.0385,3.0392,3.043,3.0429,3.0452,3.0464,3.0465,3.0441,3.0481,3.0492,3.0576,3.0631,3.0525,3.053,3.0796,3.0802,3.0808,3.0889,0,0,0,0,0,0,3.0284,3.0303,3.0344,3.0371,3.0389,3.0506,3.0434,3.0433,3.0462,3.0455,3.0485,3.0487,3.0479,3.0567,3.0582,3.0638,3.0535,3.0791,3.0799,3.0806,3.0881,3.0897,3.091,0,0,0,0,0,3.0277,3.0364,3.0347,3.0363,3.044,3.0509,3.0519,3.0508,3.0467,3.0509,3.0517,3.0486,3.0623,3.0576,3.0592,3.0651,3.0788,3.0797,3.0805,3.0875,3.0894,3.091,0,0,0,0,0,0,3.0342,3.0367,3.0348,3.0446,3.0476,3.0499,3.0551,3.0528,3.057,3.0562,3.0546,3.0554,3.0642,3.0654,3.0602,3.0757,3.0699,3.0711,3.0746,3.0764,3.0778,3.0773,3.054,0,0,0,0,0,3.0368,3.0422,3.0441,3.0525,3.0541,3.0544,3.0573,3.0563,3.0593,3.0605,3.0619,3.0649,3.0699,3.0732,3.0779,3.0883,3.0889,3.0931,3.0946,3.0957,3.0968,3.1025,3.1044,3.0839,3.0839,3.0839,0,0,3.0422,3.0442,3.0477,3.0539,3.0561,3.0617,3.0555,3.0617,3.0658,3.0614,3.0694,3.0706,3.0738,3.0833,3.0875,3.0846,3.1027,3.0969,3.0978,3.0982,3.1036,3.1056,3.1073,3.0845,3.0844,3.0843,0,0,3.0549,3.0569,3.0643,3.0666,3.0701,3.0702,3.072,3.0747,3.0753,3.0833,3.0802,3.0851,3.0937,3.0962,3.0986,3.1124,3.1097,3.1139,3.1215,3.127,3.1286,3.1301,3.1351,3.1369,3.115,3.115,3.115,0,3.0611,3.0695,3.0683,3.0748,3.0776,3.074,3.0814,3.0837,3.0885,3.0906,3.0872,3.0981,3.1,3.11,3.1134,3.1154,3.1174,3.1136,3.1285,3.1299,3.1313,3.136,3.1379,3.1155,3.1155,3.1154,3.1154,0,3.077,3.0829,3.0884,3.0932,3.0967,3.1036,3.1035,3.1071,3.1058,3.1063,3.1146,3.1168,3.1218,3.1241,3.1229,3.1341,3.1322,3.1287,3.1228,3.1337,3.1382,3.14,3.1162,3.1161,3.1159,3.1158,0,0,3.0939,3.0981,3.1001,3.1023,3.1059,3.1104,3.1172,3.1223,3.1254,3.1289,3.1345,3.142,3.1389,3.1416,3.1406,3.1455,3.1564,3.1414,3.1415,3.1442,3.1689,3.1715,3.1736,3.1546,3.155,3.1552,3.1686,0,3.1068,3.1187,3.1179,3.129,3.1345,3.1312,3.1371,3.1399,3.1406,3.1453,3.146,3.1514,3.1468,3.1484,3.1531,3.1541,3.1613,3.1531,3.1599,3.1601,3.1592,3.1759,3.1786,3.1912,3.1704,3.1707,3.1709,0,3.1234,3.1276,3.1393,3.1422,3.1444,3.1498,3.1544,3.159,3.1621,3.1623,3.1654,3.1636,3.1705,3.1644,3.1739,3.1683,3.171,3.1719,3.1724,3.173,3.1662,3.177,3.1952,3.1971,3.1736,3.1734,3.1732,0,3.1347,3.1431,3.1513,3.1533,3.1568,3.1607,3.1623,3.1651,3.1683,3.1723,3.1743,3.1791,3.1817,3.1854,3.185,3.1806,3.1946,3.1885,3.195,3.195,3.198,3.1979,3.217,3.1998,3.1998,3.1997,3.1997,0,3.1491,3.1565,3.1564,3.1614,3.1696,3.1686,3.1767,3.1778,3.1804,3.1856,3.183,3.188,3.1871,3.192,3.1917,3.1996,3.2008,3.2011,3.2009,3.2013,3.2013,3.2031,3.2022,3.2002,3.2001,3.2,3.1999,0,3.1631,3.1633,3.172,3.1747,3.1755,3.1814,3.1837,3.1885,3.189,3.1956,3.1971,3.1979,3.2035,3.2035,3.2099,3.2097,3.2194,3.2182,3.2184,3.2182,3.2246,3.2241,3.2456,3.2484,3.2294,3.2296,3.2297,0,3.1723,3.1779,3.1812,3.1846,3.1865,3.1919,3.1951,3.1944,3.1978,3.2019,3.2062,3.2117,3.216,3.2252,3.2264,3.2313,3.2302,3.2374,3.2309,3.2312,3.2304,3.2301,3.2307,3.2387,3.2389,3.2391,3.2392,0,3.1887,3.1886,3.1934,3.1983,3.2022,3.206,3.2095,3.2124,3.212,3.216,3.2219,3.2252,3.2319,3.2374,3.2421,3.2438,3.2415,3.2413,3.243,3.2435,3.2434,3.2436,3.2219,3.2408,3.2406,3.2405,3.2404,3.2403,3.2006,3.2055,3.2086,3.214,3.2166,3.22,3.2246,3.2258,3.2306,3.236,3.2353,3.2418,3.2449,3.2511,3.2532,3.2583,3.2558,3.2583,3.259,3.2596,3.2604,3.2426,3.2592,3.2591,3.2591,3.259,3.259,0,3.2169,3.2188,3.2238,3.2289,3.2332,3.2307,3.2345,3.2382,3.244,3.2472,3.2515,3.2583,3.2636,3.2652,3.2703,3.2741,3.2732,3.2755,3.2752,3.2756,3.2623,3.2603,3.2761,3.2761,3.2761,3.2761,3.2761,3.2761,3.2259,3.234,3.2343,3.2437,3.2455,3.252,3.2543,3.2574,3.2599,3.2676,3.2721,3.2731,3.2756,3.281,3.2857,3.2861,3.2881,3.2908,3.2908,3.2783,3.2766,3.2749,3.273,3.2913,3.2913,3.3037,3.3038,3.3039]},{"header":{"parameterUnit":"m.s-1","parameterCategory":1,"la1":30.2991,"la2":30.254,"lo1":-89.0895,"lo2":-89.0444,"dy":0.0017,"dx":0.0017,"nx":28,"ny":28,"refTime":"2024-12-11T03:00:00:Z","depth":0,"parameterNumber":3,"parameterNumberName":"V-component_of_WINDS"},"data":[0,0,0,0,0,0,0,0,0,0,0,0,0,0,0,0,0,0,0,0,0,0,0,0,0,0,0,0,0,0,0,0,0,0,0,0,0,0,0,0,0,0,0,0,0,0,0,0,0,0,0,0,0,0,0,0,0,0,-3.2019,-3.2021,0,-3.2186,-3.2188,-3.219,-3.2163,-3.216,-3.2157,-3.2154,-3.2325,-3.2332,-3.234,0,0,0,0,0,0,0,0,0,0,0,0,0,-3.1678,-3.1684,-3.2019,-3.2021,-3.2023,-3.2186,-3.2188,-3.219,-3.2163,-3.216,-3.2156,-3.2153,-3.2323,-3.2332,-3.234,0,0,0,0,0,0,0,0,0,0,0,0,0,-3.1833,-3.1686,-3.2018,-3.2029,-3.2031,-3.2185,-3.2188,-3.2191,-3.2164,-3.2159,-3.2155,-3.2151,-3.232,-3.2331,-3.2341,-3.2495,0,0,-3.2375,-3.2379,0,0,0,0,0,0,0,0,-3.1825,-3.1846,-3.2025,-3.2028,-3.2032,-3.2149,-3.213,-3.2293,-3.2165,-3.2114,-3.2154,-3.2149,-3.227,-3.2285,-3.2326,-3.2503,-3.2511,-3.2376,-3.2382,-3.2387,-3.239,0,0,0,0,0,0,0,-3.1814,-3.1839,-3.2085,-3.2028,-3.2032,-3.2026,-3.2043,-3.2161,-3.2214,-3.2118,-3.2116,-3.2136,-3.2271,-3.2315,-3.233,-3.2513,-3.2375,-3.2385,-3.2392,-3.2396,-3.2828,-3.2833,0,0,0,0,0,0,-3.18,-3.183,-3.2079,-3.209,-3.1915,-3.2036,-3.2055,-3.2116,-3.2213,-3.2223,-3.214,-3.2134,-3.2299,-3.2317,-3.2336,-3.2524,-3.2387,-3.2397,-3.2403,-3.2823,-3.2829,-3.2835,0,0,0,0,0,0,-3.1793,-3.1822,-3.2073,-3.196,-3.1991,-3.2046,-3.2114,-3.2121,-3.2165,-3.2229,-3.2239,-3.2175,-3.2296,-3.232,-3.2456,-3.253,-3.2402,-3.2412,-3.2817,-3.2825,-3.2832,-3.2901,0,0,0,0,0,0,-3.1783,-3.182,-3.1878,-3.1961,-3.1997,-3.2191,-3.2119,-3.2128,-3.2184,-3.2179,-3.2265,-3.2275,-3.2295,-3.244,-3.2467,-3.2542,-3.242,-3.2811,-3.2821,-3.283,-3.2893,-3.291,-3.2925,0,0,0,0,0,-3.1771,-3.1891,-3.1881,-3.1912,-3.2071,-3.2195,-3.2216,-3.2235,-3.219,-3.225,-3.2292,-3.2273,-3.2517,-3.2454,-3.2485,-3.2564,-3.2807,-3.2818,-3.2829,-3.2886,-3.2907,-3.2925,0,0,0,0,0,0,-3.1815,-3.1902,-3.1892,-3.2042,-3.2112,-3.219,-3.2266,-3.2257,-3.234,-3.2331,-3.2352,-3.2372,-3.2511,-3.2551,-3.2479,-3.2719,-3.2656,-3.2673,-3.2689,-3.2709,-3.2725,-3.2713,-3.2429,0,0,0,0,0,-3.1842,-3.1935,-3.2005,-3.2131,-3.2166,-3.221,-3.2265,-3.2274,-3.2347,-3.2376,-3.2427,-3.2498,-3.2591,-3.2652,-3.2741,-3.2898,-3.2918,-3.2968,-3.2984,-3.2997,-3.3013,-3.3101,-3.3125,-3.2871,-3.2871,-3.2871,0,0,-3.1899,-3.1958,-3.2015,-3.2142,-3.2196,-3.2293,-3.2235,-3.2339,-3.2411,-3.2391,-3.2524,-3.2564,-3.2645,-3.2793,-3.2861,-3.2831,-3.3087,-3.3011,-3.3021,-3.303,-3.3115,-3.3139,-3.3161,-3.2879,-3.2877,-3.2876,0,0,-3.2053,-3.2106,-3.2218,-3.2274,-3.2358,-3.2387,-3.2413,-3.2494,-3.252,-3.2654,-3.2642,-3.2728,-3.2887,-3.2946,-3.2997,-3.3176,-3.3162,-3.3204,-3.3289,-3.3375,-3.3395,-3.3413,-3.3479,-3.3503,-3.3219,-3.3219,-3.3219,0,-3.2114,-3.2258,-3.2276,-3.2383,-3.244,-3.2427,-3.2541,-3.2595,-3.2703,-3.2743,-3.2708,-3.2909,-3.2962,-3.3126,-3.3169,-3.321,-3.3243,-3.3195,-3.3391,-3.3409,-3.3426,-3.3489,-3.3514,-3.3224,-3.3223,-3.3223,-3.3222,0,-3.233,-3.243,-3.2511,-3.2617,-3.2683,-3.2792,-3.2828,-3.2893,-3.2897,-3.293,-3.3067,-3.313,-3.3233,-3.3272,-3.3277,-3.3437,-3.3416,-3.3386,-3.3322,-3.3455,-3.3515,-3.3539,-3.323,-3.3229,-3.3227,-3.3226,0,0,-3.2516,-3.2632,-3.2661,-3.271,-3.2803,-3.2881,-3.2991,-3.3092,-3.3148,-3.3224,-3.3318,-3.3454,-3.3427,-3.3485,-3.3496,-3.3571,-3.3712,-3.3532,-3.3534,-3.3565,-3.3896,-3.392,-3.3947,-3.3703,-3.3708,-3.3711,-3.389,0,-3.268,-3.2874,-3.2895,-3.3069,-3.3163,-3.3153,-3.3249,-3.3317,-3.3351,-3.3436,-3.3474,-3.3571,-3.3527,-3.3562,-3.3636,-3.3679,-3.3779,-3.3666,-3.3792,-3.3797,-3.3775,-3.3978,-3.4004,-3.4169,-3.3913,-3.3917,-3.392,0,-3.2898,-3.2981,-3.3165,-3.3246,-3.3286,-3.3372,-3.3468,-3.3549,-3.3627,-3.3646,-3.3712,-3.3714,-3.3829,-3.376,-3.3919,-3.3842,-3.3895,-3.3924,-3.3931,-3.3945,-3.3868,-3.4,-3.4222,-3.4247,-3.3956,-3.3953,-3.3951,0,-3.3019,-3.3176,-3.3307,-3.3349,-3.3446,-3.3508,-3.3551,-3.3624,-3.3684,-3.3768,-3.3808,-3.3903,-3.3956,-3.4031,-3.4059,-3.4005,-3.4218,-3.4151,-3.4239,-3.4239,-3.4286,-3.4283,-3.4521,-3.4316,-3.4316,-3.4315,-3.4315,0,-3.3201,-3.3315,-3.3363,-3.3444,-3.3571,-3.3594,-3.3719,-3.376,-3.3825,-3.3915,-3.3911,-3.3995,-3.4026,-3.4116,-3.4138,-3.4269,-3.4292,-3.4312,-3.4317,-3.4314,-3.4312,-3.435,-3.434,-3.4322,-3.432,-3.4319,-3.4318,0,-3.3358,-3.3394,-3.3537,-3.3618,-3.3641,-3.3732,-3.3802,-3.388,-3.3913,-3.4027,-3.4055,-3.4107,-3.4213,-3.4248,-3.4375,-3.4391,-3.4543,-3.4537,-3.4518,-3.4519,-3.4607,-3.4599,-3.488,-3.4919,-3.4686,-3.4688,-3.469,0,-3.3473,-3.356,-3.3651,-3.3711,-3.3757,-3.3853,-3.3915,-3.3941,-3.4006,-3.4102,-3.417,-3.4274,-3.436,-3.4529,-3.4579,-3.4677,-3.4675,-3.4767,-3.469,-3.4685,-3.468,-3.4675,-3.4685,-3.4782,-3.4784,-3.4786,-3.4788,0,-3.3674,-3.3689,-3.3778,-3.3875,-3.3949,-3.4026,-3.4101,-3.415,-3.4188,-3.4261,-3.4369,-3.4436,-3.4567,-3.4672,-3.4772,-3.4818,-3.4811,-3.4811,-3.4838,-3.4836,-3.4823,-3.4834,-3.456,-3.4805,-3.4803,-3.4802,-3.4801,-3.4801,-3.3816,-3.3894,-3.3971,-3.4071,-3.413,-3.4201,-3.428,-3.4323,-3.4414,-3.4523,-3.4533,-3.465,-3.4727,-3.4862,-3.4912,-3.5006,-3.498,-3.5017,-3.5027,-3.5036,-3.5045,-3.4806,-3.5024,-3.5023,-3.5023,-3.5022,-3.5022,0,-3.4019,-3.4068,-3.416,-3.4266,-3.4346,-3.4331,-3.4413,-3.4481,-3.4585,-3.4657,-3.4742,-3.4868,-3.497,-3.5028,-3.5131,-3.5195,-3.5194,-3.5221,-3.5218,-3.5229,-3.506,-3.5029,-3.522,-3.522,-3.522,-3.522,-3.522,-3.522,-3.4135,-3.4267,-3.4291,-3.4453,-3.4501,-3.4617,-3.4666,-3.4731,-3.479,-3.493,-3.5016,-3.5053,-3.5121,-3.5229,-3.5323,-3.5337,-3.5377,-3.5407,-3.5419,-3.5261,-3.524,-3.5221,-3.5192,-3.5414,-3.5415,-3.5581,-3.5582,-3.5583]}]]